Starlink 6377

operational
NORAD ID: 57341 Int'l Des: 2023-099 Owner: SPXS Country: US Constellation: starlink
LEOCIRCULAR

关于 Starlink 6377

正在加载描述...

实时位置

正在加载3D地球...

即将过境

高度历史

Altitude vs Time

uPlot chart will show altitude changes over time

两行轨道根数

1 57341U 23099P 25352.96415944 -.00003576 00000-0 -24968-3 0 9997
2 57341 43.0045 327.5858 0001021 254.5170 105.5559 15.02550201133978
Epoch: Dec 18, 2025 • Age: 28 hours

当前状态

高度 568.7 km
速度 7.58 km/s
星下点 -35.46°S, 128.72°E
发射日期 Jul 16, 2023
运行时间 2.4 years
类型 internet

技术详情

分类 Payload
质量 305.00 kg
干质量 290.00 kg
总质量 305.00 kg
长度 0.20 m
直径 2.80 m
跨度 9.00 m
形状 Box + pan
制造商 SPXS
平台类型 Starlink
阶段状态 In Orbit
所有者/国家 SPXS/US

大型星座

Loading constellations...